sat.trackr.live / text

‹ back to catalog

ITASAT

NORAD 43786 · 2018-099AE

PAYLOAD ACTIVE UNKNOWN

§ Identity

Operator
Country
BRAZ
Launch date
2018-12-03
Launch site
AFWTR
Launch vehicle
Mass (kg)
RCS (m²)

Purposes: comms

External: N2YO · Heavens-Above · Gunter

§ Orbital elements

Epoch: 2026-09-18T09:31:41.409120Z

Period
94.73 min
Inclination
97.3931°
Eccentricity
0.0012942
Mean motion
15.20055674 rev/d
Perigee alt
496.8 km
Apogee alt
514.6 km
Semi-major
6,883.8 km
B*
2.1918e-4
RAAN
311.0652°
Arg perigee
33.8772°
Mean anomaly
326.3287°
Rev number
42,706

§ Raw data

ITASAT1 43786U 18099AE  26261.39700705  .00004670  00000+0  21918-3 0  99932 43786  97.3931 311.0652 0012942  33.8772 326.3287 15.20055674427063

JSON: /api/v1/satellites/43786 · /tle

For live sub-satellite position, see the globe view (requires WebGL).

§ Visibility from observer

Set your observer location to see the next 7 days of passes ≥ 10°. The values pass through the URL so the page stays shareable.

No JS? Fill the form by hand. The geolocation button needs JavaScript.

§ Radio — SatNOGS DB

ModeDescriptionDownlinkUplink
BPSK BPSK14k4 2.400 GHz
BPSK BPSK1k2 AX.25 TLM 145.860 MHz

2 transmitters · refreshed weekly from db.satnogs.org